| time (UTC) | temp F | wind direction | speed knots | gust knots | rain 1hr in | rain 24hr in | rain mn in | humidity % | barometer mb |
| 20260906201013 | 81 | 204 | 5.2 | 8.7 | 0.00 | 0.00 | 0.00 | 77 | 1014.8 |
| 20260906200514 | 81 | 360 | 4.3 | 13.9 | 0.00 | 0.00 | 0.00 | 77 | 1014.8 |
| 20260906200039 | 81 | 149 | 5.2 | 13.0 | 0.00 | 0.00 | 0.00 | 77 | 1014.8 |
| 20260906195516 | 82 | 170 | 6.1 | 10.4 | 0.00 | 0.00 | 0.00 | 77 | 1014.8 |
| 20260906195015 | 81 | 192 | 6.1 | 11.3 | 0.00 | 0.00 | 0.00 | 76 | 1014.7 |
| 20260906194527 | 81 | 182 | 7.0 | 11.3 | 0.00 | 0.00 | 0.00 | 76 | 1014.6 |
| 20260906194019 | 82 | 209 | 7.0 | 11.3 | 0.00 | 0.00 | 0.00 | 76 | 1014.5 |
| 20260906193514 | 82 | 173 | 5.2 | 13.9 | 0.00 | 0.00 | 0.00 | 76 | 1014.4 |
| 20260906193025 | 82 | 189 | 8.7 | 13.9 | 0.00 | 0.00 | 0.00 | 75 | 1014.5 |
| 20260906192515 | 82 | 184 | 7.8 | 13.0 | 0.00 | 0.00 | 0.00 | 75 | 1014.6 |
| 20260906192014 | 82 | 173 | 7.8 | 13.9 | 0.00 | 0.00 | 0.00 | 74 | 1014.7 |
| 20260906191537 | 83 | 159 | 9.6 | 13.9 | 0.00 | 0.00 | 0.00 | 73 | 1014.6 |
| 20260906191015 | 83 | 165 | 7.8 | 13.9 | 0.00 | 0.00 | 0.00 | 73 | 1014.7 |
| 20260906190515 | 84 | 189 | 7.8 | 13.9 | 0.00 | 0.00 | 0.00 | 73 | 1014.6 |
| 20260906190034 | 84 | 86 | 5.2 | 13.9 | 0.00 | 0.00 | 0.00 | 71 | 1014.7 |
| 20260906185514 | 85 | 231 | 7.8 | 13.9 | 0.00 | 0.00 | 0.00 | 72 | 1014.8 |
| 20260906185015 | 85 | 196 | 6.1 | 11.3 | 0.00 | 0.00 | 0.00 | 71 | 1014.9 |
| 20260906184529 | 85 | 197 | 6.1 | 10.4 | 0.00 | 0.00 | 0.00 | 71 | 1014.9 |
| 20260906184014 | 85 | 186 | 5.2 | 11.3 | 0.00 | 0.00 | 0.00 | 70 | 1014.7 |
| 20260906183517 | 86 | 196 | 3.5 | 11.3 | 0.00 | 0.00 | 0.00 | 69 | 1014.7 |
| 20260906183029 | 86 | 177 | 7.0 | 12.2 | 0.00 | 0.00 | 0.00 | 70 | 1014.6 |
| 20260906182519 | 85 | 172 | 5.2 | 10.4 | 0.00 | 0.00 | 0.00 | 71 | 1014.6 |
| 20260906182016 | 85 | 75 | 3.5 | 9.6 | 0.00 | 0.00 | 0.00 | 69 | 1014.6 |
| 20260906181541 | 86 | 167 | 5.2 | 12.2 | 0.00 | 0.00 | 0.00 | 68 | 1014.6 |
| 20260906181016 | 86 | 174 | 7.8 | 12.2 | 0.00 | 0.00 | 0.00 | 70 | 1014.7 |
| 20260906180516 | 85 | 360 | 5.2 | 10.4 | 0.00 | 0.00 | 0.00 | 72 | 1014.6 |
| 20260906180034 | 85 | 203 | 6.1 | 12.2 | 0.00 | 0.00 | 0.00 | 69 | 1014.7 |
| 20260906175516 | 85 | 197 | 6.1 | 12.2 | 0.00 | 0.00 | 0.00 | 73 | 1014.9 |
| 20260906175017 | 84 | 105 | 6.1 | 12.2 | 0.00 | 0.00 | 0.00 | 73 | 1014.9 |
| 20260906174530 | 83 | 173 | 1.7 | 12.2 | 0.00 | 0.00 | 0.00 | 74 | 1014.8 |
| 20260906174016 | 83 | 173 | 7.8 | 12.2 | 0.00 | 0.00 | 0.00 | 75 | 1014.9 |
| 20260906173517 | 82 | 217 | 3.5 | 9.6 | 0.00 | 0.00 | 0.00 | 75 | 1015.0 |
| 20260906173030 | 82 | 360 | 3.5 | 9.6 | 0.00 | 0.00 | 0.00 | 75 | 1015.1 |
| 20260906172515 | 82 | 185 | 6.1 | 8.7 | 0.00 | 0.00 | 0.00 | 75 | 1015.2 |
| 20260906172014 | 82 | 223 | 2.6 | 7.8 | 0.00 | 0.00 | 0.00 | 74 | 1015.4 |
| 20260906171531 | 82 | 185 | 3.5 | 10.4 | 0.00 | 0.00 | 0.00 | 75 | 1015.5 |
| 20260906171015 | 82 | 126 | 3.5 | 10.4 | 0.00 | 0.00 | 0.00 | 74 | 1015.5 |
| 20260906170521 | 82 | 158 | 5.2 | 7.8 | 0.00 | 0.00 | 0.00 | 74 | 1015.5 |
| 20260906170029 | 83 | 211 | 1.7 | 10.4 | 0.00 | 0.00 | 0.00 | 72 | 1015.6 |
| 20260906165516 | 84 | 360 | 4.3 | 10.4 | 0.00 | 0.00 | 0.00 | 71 | 1015.7 |
| 20260906165015 | 84 | 157 | 3.5 | 8.7 | 0.00 | 0.00 | 0.00 | 71 | 1015.7 |
| 20260906164538 | 83 | 115 | 4.3 | 9.6 | 0.00 | 0.00 | 0.00 | 73 | 1015.8 |
| 20260906164016 | 83 | 80 | 2.6 | 9.6 | 0.00 | 0.00 | 0.00 | 72 | 1015.8 |
| 20260906163515 | 83 | 113 | 2.6 | 9.6 | 0.00 | 0.00 | 0.00 | 74 | 1015.8 |
| 20260906163027 | 82 | 112 | 2.6 | 7.8 | 0.00 | 0.00 | 0.00 | 73 | 1015.9 |
| 20260906162516 | 82 | 80 | 2.6 | 8.7 | 0.00 | 0.00 | 0.00 | 75 | 1015.8 |
| 20260906162015 | 82 | 126 | 5.2 | 8.7 | 0.00 | 0.00 | 0.00 | 74 | 1015.8 |
| 20260906161532 | 82 | 123 | 1.7 | 7.8 | 0.00 | 0.00 | 0.00 | 75 | 1015.8 |
| 20260906161018 | 81 | 159 | 1.7 | 10.4 | 0.00 | 0.00 | 0.00 | 75 | 1015.8 |
| 20260906160518 | 81 | 117 | 1.7 | 11.3 | 0.00 | 0.00 | 0.00 | 76 | 1015.8 |
| 20260906160030 | 81 | 163 | 3.5 | 11.3 | 0.00 | 0.00 | 0.00 | 76 | 1015.9 |
| 20260906155516 | 81 | 157 | 3.5 | 10.4 | 0.00 | 0.00 | 0.00 | 76 | 1015.9 |
| 20260906155016 | 81 | 204 | 7.0 | 10.4 | 0.00 | 0.00 | 0.00 | 76 | 1015.9 |
| 20260906154538 | 81 | 177 | 3.5 | 7.8 | 0.00 | 0.00 | 0.00 | 76 | 1015.9 |
| 20260906154019 | 81 | 117 | 2.6 | 7.8 | 0.00 | 0.00 | 0.00 | 77 | 1015.9 |
| 20260906153514 | 79 | 119 | 2.6 | 7.0 | 0.00 | 0.00 | 0.00 | 77 | 1015.9 |
| 20260906153035 | 79 | 105 | 1.7 | 7.0 | 0.00 | 0.00 | 0.00 | 79 | 1016.0 |
| 20260906152526 | 79 | 101 | 1.7 | 7.0 | 0.00 | 0.00 | 0.00 | 79 | 1015.9 |
| 20260906152016 | 78 | 186 | 2.6 | 7.8 | 0.00 | 0.00 | 0.00 | 80 | 1015.8 |
| 20260906151533 | 78 | 117 | 3.5 | 7.8 | 0.00 | 0.00 | 0.00 | 79 | 1015.8 |
| 20260906151017 | 78 | 182 | 2.6 | 7.0 | 0.00 | 0.00 | 0.00 | 80 | 1015.8 |
| 20260906150518 | 78 | 134 | 0.9 | 9.6 | 0.00 | 0.00 | 0.00 | 82 | 1015.8 |
| 20260906150029 | 77 | 105 | 4.3 | 9.6 | 0.00 | 0.00 | 0.00 | 81 | 1015.8 |
| 20260906145519 | 77 | 80 | 2.6 | 7.8 | 0.00 | 0.00 | 0.00 | 82 | 1015.8 |
| 20260906145019 | 76 | 110 | 1.7 | 7.0 | 0.00 | 0.00 | 0.00 | 82 | 1015.8 |
| 20260906144529 | 76 | 101 | 1.7 | 7.0 | 0.00 | 0.00 | 0.00 | 82 | 1016.0 |
| 20260906144013 | 76 | 198 | 1.7 | 5.2 | 0.00 | 0.00 | 0.00 | 83 | 1016.0 |
| 20260906143514 | 76 | 90 | 0.9 | 6.1 | 0.00 | 0.00 | 0.00 | 83 | 1016.0 |
| 20260906143034 | 76 | 76 | 2.6 | 7.8 | 0.00 | 0.00 | 0.00 | 83 | 1016.1 |
| 20260906142519 | 76 | 121 | 2.6 | 7.8 | 0.00 | 0.00 | 0.00 | 83 | 1016.0 |
| 20260906142021 | 76 | 97 | 1.7 | 7.0 | 0.00 | 0.00 | 0.00 | 83 | 1016.0 |
| 20260906141534 | 75 | 138 | 2.6 | 7.0 | 0.00 | 0.00 | 0.00 | 83 | 1016.0 |
| 20260906141019 | 75 | 80 | 2.6 | 7.0 | 0.00 | 0.00 | 0.00 | 83 | 1016.1 |
| 20260906140517 | 75 | 121 | 0.9 | 6.1 | 0.00 | 0.00 | 0.00 | 83 | 1016.1 |
| 20260906140036 | 75 | 115 | 0.9 | 6.1 | 0.00 | 0.00 | 0.00 | 83 | 1016.1 |
| 20260906135516 | 75 | 126 | 0.9 | 7.0 | 0.00 | 0.00 | 0.00 | 83 | 1016.2 |
| 20260906135016 | 75 | 86 | 2.6 | 7.0 | 0.00 | 0.00 | 0.00 | 83 | 1016.2 |
| 20260906134534 | 75 | 98 | 0.9 | 6.1 | 0.00 | 0.00 | 0.00 | 83 | 1016.3 |
| 20260906134018 | 75 | 117 | 1.7 | 6.1 | 0.00 | 0.00 | 0.00 | 83 | 1016.3 |
| 20260906133514 | 75 | 133 | 1.7 | 7.0 | 0.00 | 0.00 | 0.00 | 83 | 1016.3 |
| 20260906133030 | 75 | 92 | 1.7 | 7.0 | 0.00 | 0.00 | 0.00 | 84 | 1016.3 |
| 20260906132519 | 75 | 139 | 1.7 | 6.1 | 0.00 | 0.00 | 0.00 | 84 | 1016.2 |
| 20260906132019 | 74 | 132 | 1.7 | 7.8 | 0.00 | 0.00 | 0.00 | 85 | 1016.3 |
| 20260906131534 | 74 | 120 | 2.6 | 7.8 | 0.00 | 0.00 | 0.00 | 85 | 1016.4 |
| 20260906131018 | 73 | 163 | 0.0 | 7.8 | 0.00 | 0.00 | 0.00 | 86 | 1016.3 |
| 20260906130520 | 73 | 135 | 1.7 | 5.2 | 0.00 | 0.00 | 0.00 | 86 | 1016.3 |
| 20260906130031 | 73 | 133 | 0.9 | 5.2 | 0.00 | 0.00 | 0.00 | 87 | 1016.2 |
| 20260906125515 | 72 | 162 | 0.0 | 3.5 | 0.00 | 0.00 | 0.00 | 87 | 1016.0 |
| 20260906125017 | 72 | 136 | 1.7 | 3.5 | 0.00 | 0.00 | 0.00 | 88 | 1015.9 |
| 20260906124538 | 71 | 127 | 0.0 | 2.6 | 0.00 | 0.00 | 0.00 | 88 | 1015.7 |
| 20260906124016 | 71 | 187 | 0.0 | 2.6 | 0.00 | 0.00 | 0.00 | 88 | 1015.7 |
| 20260906123516 | 71 | 242 | 0.0 | 2.6 | 0.00 | 0.00 | 0.00 | 88 | 1015.7 |
| 20260906123032 | 71 | 101 | 0.0 | 3.5 | 0.00 | 0.00 | 0.00 | 88 | 1015.6 |
| 20260906122519 | 71 | 132 | 0.0 | 3.5 | 0.00 | 0.00 | 0.00 | 88 | 1015.7 |
| 20260906122020 | 71 | 96 | 0.0 | 2.6 | 0.00 | 0.00 | 0.00 | 88 | 1015.7 |
| 20260906121534 | 71 | 130 | 0.0 | 3.5 | 0.00 | 0.00 | 0.00 | 88 | 1015.7 |
| 20260906121021 | 71 | 119 | 0.0 | 3.5 | 0.00 | 0.00 | 0.00 | 88 | 1015.8 |
| 20260906120519 | 71 | 139 | 0.0 | 2.6 | 0.00 | 0.00 | 0.00 | 88 | 1015.7 |
| 20260906120040 | 70 | 129 | 0.0 | 1.7 | 0.00 | 0.00 | 0.00 | 88 | 1015.8 |
| 20260906115518 | 70 | 103 | 0.0 | 1.7 | 0.00 | 0.00 | 0.00 | 88 | 1015.8 |
| 20260906115015 | 70 | 111 | 0.0 | 1.7 | 0.00 | 0.00 | 0.00 | 88 | 1015.8 |
| 20260906114544 | 70 | 191 | 0.0 | 4.3 | 0.00 | 0.00 | 0.00 | 88 | 1016.0 |
| 20260906114016 | 70 | 150 | 0.0 | 4.3 | 0.00 | 0.00 | 0.00 | 88 | 1016.0 |
| 20260906113517 | 70 | 169 | 0.0 | 2.6 | 0.00 | 0.00 | 0.00 | 87 | 1015.8 |
| 20260906113032 | 70 | 185 | 0.0 | 3.5 | 0.00 | 0.00 | 0.00 | 87 | 1015.8 |
| 20260906112519 | 71 | 188 | 0.9 | 4.3 | 0.00 | 0.00 | 0.00 | 87 | 1015.7 |
| 20260906112022 | 71 | 148 | 0.0 | 6.1 | 0.00 | 0.00 | 0.00 | 87 | 1015.6 |
| 20260906111535 | 71 | 163 | 2.6 | 6.1 | 0.00 | 0.00 | 0.00 | 87 | 1015.6 |
| 20260906111019 | 71 | 187 | 2.6 | 5.2 | 0.00 | 0.00 | 0.00 | 87 | 1015.7 |
| 20260906110519 | 71 | 91 | 0.9 | 5.2 | 0.00 | 0.00 | 0.00 | 87 | 1015.8 |
| 20260906110031 | 71 | 151 | 0.9 | 7.0 | 0.00 | 0.00 | 0.00 | 87 | 1015.7 |
| 20260906105518 | 71 | 186 | 3.5 | 7.0 | 0.00 | 0.00 | 0.00 | 87 | 1015.6 |
| 20260906105019 | 71 | 178 | 2.6 | 6.1 | 0.00 | 0.00 | 0.00 | 87 | 1015.6 |
| 20260906104535 | 70 | 360 | 1.7 | 5.2 | 0.00 | 0.00 | 0.00 | 87 | 1015.6 |
| 20260906104017 | 70 | 178 | 0.9 | 5.2 | 0.00 | 0.00 | 0.00 | 87 | 1015.5 |
| 20260906103514 | 70 | 171 | 0.0 | 5.2 | 0.00 | 0.00 | 0.00 | 87 | 1015.5 |
| 20260906103031 | 70 | 178 | 0.0 | 5.2 | 0.00 | 0.00 | 0.00 | 87 | 1015.5 |
| 20260906102514 | 70 | 124 | 0.0 | 5.2 | 0.00 | 0.00 | 0.00 | 87 | 1015.5 |
| 20260906102019 | 70 | 103 | 0.0 | 4.3 | 0.00 | 0.00 | 0.00 | 87 | 1015.5 |
| 20260906101531 | 70 | 113 | 0.0 | 3.5 | 0.00 | 0.00 | 0.00 | 87 | 1015.5 |
| 20260906101019 | 70 | 115 | 0.0 | 1.7 | 0.00 | 0.00 | 0.00 | 87 | 1015.5 |
| 20260906100520 | 70 | 98 | 0.0 | 1.7 | 0.00 | 0.00 | 0.00 | 87 | 1015.5 |
| 20260906100035 | 70 | 106 | 0.0 | 2.6 | 0.00 | 0.00 | 0.00 | 87 | 1015.5 |
| 20260906095520 | 70 | 103 | 0.0 | 2.6 | 0.00 | 0.00 | 0.00 | 87 | 1015.4 |
| 20260906095018 | 70 | 96 | 0.0 | 0.9 | 0.00 | 0.00 | 0.00 | 87 | 1015.3 |
| 20260906094554 | 70 | 98 | 0.0 | 1.7 | 0.00 | 0.00 | 0.00 | 87 | 1015.3 |
| 20260906094016 | 70 | 95 | 0.0 | 1.7 | 0.00 | 0.00 | 0.00 | 87 | 1015.4 |
| 20260906093514 | 70 | 112 | 0.0 | 1.7 | 0.00 | 0.00 | 0.00 | 87 | 1015.4 |
| 20260906093042 | 70 | 116 | 0.0 | 1.7 | 0.00 | 0.00 | 0.00 | 86 | 1015.5 |
| 20260906092519 | 70 | 98 | 0.0 | 1.7 | 0.00 | 0.00 | 0.00 | 86 | 1015.5 |
| 20260906092020 | 70 | 99 | 0.0 | 0.0 | 0.00 | 0.00 | 0.00 | 86 | 1015.5 |
| 20260906091529 | 70 | 99 | 0.0 | 0.0 | 0.00 | 0.00 | 0.00 | 86 | 1015.5 |
| 20260906091020 | 70 | 107 | 0.0 | 0.0 | 0.00 | 0.00 | 0.00 | 86 | 1015.6 |
| 20260906090518 | 71 | 100 | 0.0 | 1.7 | 0.00 | 0.00 | 0.00 | 85 | 1015.6 |
| 20260906090033 | 71 | 93 | 0.0 | 1.7 | 0.00 | 0.00 | 0.00 | 85 | 1015.6 |
| 20260906085518 | 71 | 101 | 0.9 | 1.7 | 0.00 | 0.00 | 0.00 | 85 | 1015.6 |
| 20260906085015 | 71 | 86 | 0.0 | 1.7 | 0.00 | 0.00 | 0.00 | 85 | 1015.6 |
| 20260906084531 | 71 | 86 | 0.0 | 1.7 | 0.00 | 0.00 | 0.00 | 84 | 1015.5 |
| 20260906084015 | 71 | 88 | 0.9 | 1.7 | 0.00 | 0.00 | 0.00 | 84 | 1015.4 |
| 20260906083521 | 71 | 98 | 0.0 | 1.7 | 0.00 | 0.00 | 0.00 | 84 | 1015.4 |
| 20260906083043 | 71 | 96 | 0.0 | 1.7 | 0.00 | 0.00 | 0.00 | 84 | 1015.3 |
| 20260906082519 | 72 | 121 | 0.0 | 1.7 | 0.00 | 0.00 | 0.00 | 84 | 1015.4 |
| 20260906082024 | 72 | 89 | 0.9 | 2.6 | 0.00 | 0.00 | 0.00 | 83 | 1015.3 |
| 20260906081538 | 72 | 87 | 0.0 | 2.6 | 0.00 | 0.00 | 0.00 | 83 | 1015.3 |
| 20260906081019 | 72 | 105 | 0.0 | 2.6 | 0.00 | 0.00 | 0.00 | 83 | 1015.3 |
| 20260906080519 | 72 | 86 | 0.0 | 1.7 | 0.00 | 0.00 | 0.00 | 83 | 1015.3 |
| 20260906080039 | 72 | 94 | 0.0 | 1.7 | 0.00 | 0.00 | 0.00 | 83 | 1015.2 |
| 20260906075519 | 72 | 119 | 0.0 | 1.7 | 0.00 | 0.00 | 0.00 | 83 | 1015.2 |
| 20260906075018 | 72 | 171 | 0.0 | 2.6 | 0.00 | 0.00 | 0.00 | 82 | 1015.2 |
| 20260906074534 | 72 | 105 | 0.0 | 2.6 | 0.00 | 0.00 | 0.00 | 82 | 1015.1 |
| 20260906074018 | 72 | 111 | 0.0 | 2.6 | 0.00 | 0.00 | 0.00 | 82 | 1015.1 |
| 20260906073518 | 73 | 107 | 0.0 | 1.7 | 0.00 | 0.00 | 0.00 | 82 | 1015.2 |
| 20260906073031 | 73 | 98 | 0.0 | 1.7 | 0.00 | 0.00 | 0.00 | 82 | 1015.2 |
| 20260906072514 | 73 | 114 | 0.0 | 4.3 | 0.00 | 0.00 | 0.00 | 81 | 1015.3 |
| 20260906072020 | 73 | 116 | 0.0 | 8.7 | 0.00 | 0.00 | 0.00 | 81 | 1015.4 |
| 20260906071532 | 73 | 103 | 0.9 | 8.7 | 0.00 | 0.00 | 0.00 | 81 | 1015.4 |
| 20260906071019 | 73 | 360 | 0.9 | 7.8 | 0.00 | 0.00 | 0.00 | 81 | 1015.4 |
| 20260906070523 | 73 | 213 | 0.9 | 6.1 | 0.00 | 0.00 | 0.00 | 80 | 1015.4 |
| 20260906070035 | 73 | 170 | 0.9 | 7.8 | 0.00 | 0.00 | 0.00 | 80 | 1015.3 |
| 20260906065519 | 74 | 172 | 2.6 | 7.8 | 0.00 | 0.00 | 0.00 | 80 | 1015.2 |
| 20260906065019 | 74 | 153 | 2.6 | 7.8 | 0.00 | 0.00 | 0.00 | 80 | 1015.1 |
| 20260906064533 | 74 | 169 | 3.5 | 7.8 | 0.00 | 0.00 | 0.00 | 80 | 1015.2 |
| 20260906064015 | 74 | 187 | 0.9 | 7.0 | 0.00 | 0.00 | 0.00 | 80 | 1015.3 |
| 20260906063514 | 74 | 153 | 2.6 | 8.7 | 0.00 | 0.00 | 0.00 | 80 | 1015.3 |
| 20260906063034 | 74 | 195 | 3.5 | 8.7 | 0.00 | 0.00 | 0.00 | 80 | 1015.4 |
| 20260906062523 | 74 | 178 | 3.5 | 7.0 | 0.00 | 0.00 | 0.00 | 80 | 1015.2 |
| 20260906062019 | 74 | 180 | 1.7 | 7.8 | 0.00 | 0.00 | 0.00 | 81 | 1015.2 |
| 20260906061536 | 74 | 192 | 0.9 | 7.8 | 0.00 | 0.00 | 0.00 | 81 | 1015.2 |
| 20260906061021 | 74 | 360 | 0.9 | 7.0 | 0.00 | 0.00 | 0.00 | 81 | 1015.2 |
| 20260906060523 | 73 | 94 | 0.9 | 6.1 | 0.00 | 0.00 | 0.00 | 81 | 1015.1 |
| 20260906060035 | 73 | 107 | 0.9 | 5.2 | 0.00 | 0.00 | 0.00 | 82 | 1015.1 |
| 20260906055515 | 73 | 128 | 1.7 | 5.2 | 0.00 | 0.00 | 0.00 | 82 | 1015.3 |
| 20260906055016 | 73 | 126 | 0.9 | 7.0 | 0.00 | 0.00 | 0.00 | 82 | 1015.3 |
| 20260906054535 | 73 | 114 | 3.5 | 7.0 | 0.00 | 0.00 | 0.00 | 82 | 1015.2 |
| 20260906054021 | 73 | 79 | 2.6 | 6.1 | 0.00 | 0.00 | 0.00 | 83 | 1015.2 |
| 20260906053520 | 73 | 107 | 1.7 | 6.1 | 0.00 | 0.00 | 0.00 | 83 | 1015.3 |
| 20260906053031 | 73 | 102 | 1.7 | 5.2 | 0.00 | 0.00 | 0.00 | 84 | 1015.3 |
| 20260906052520 | 72 | 76 | 1.7 | 5.2 | 0.00 | 0.00 | 0.00 | 84 | 1015.3 |
| 20260906052020 | 72 | 106 | 1.7 | 5.2 | 0.00 | 0.00 | 0.00 | 84 | 1015.3 |
| 20260906051547 | 72 | 103 | 2.6 | 5.2 | 0.00 | 0.00 | 0.00 | 83 | 1015.5 |
| 20260906051019 | 73 | 125 | 0.9 | 3.5 | 0.00 | 0.00 | 0.00 | 83 | 1015.6 |
| 20260906050522 | 73 | 98 | 0.9 | 3.5 | 0.00 | 0.00 | 0.00 | 83 | 1015.6 |
| 20260906050034 | 73 | 103 | 0.9 | 2.6 | 0.00 | 0.00 | 0.00 | 83 | 1015.6 |
| 20260906045520 | 73 | 98 | 0.0 | 3.5 | 0.00 | 0.00 | 0.00 | 83 | 1015.7 |
| 20260906045015 | 73 | 117 | 1.7 | 4.3 | 0.00 | 0.00 | 0.00 | 82 | 1015.7 |
| 20260906044532 | 73 | 98 | 1.7 | 6.1 | 0.00 | 0.00 | 0.00 | 82 | 1015.5 |
| 20260906044015 | 74 | 85 | 1.7 | 7.0 | 0.00 | 0.00 | 0.00 | 82 | 1015.5 |
| 20260906043516 | 74 | 129 | 2.6 | 7.0 | 0.00 | 0.00 | 0.00 | 82 | 1015.5 |
| 20260906043034 | 74 | 126 | 2.6 | 6.1 | 0.00 | 0.00 | 0.00 | 82 | 1015.4 |
| 20260906042518 | 74 | 85 | 2.6 | 6.1 | 0.00 | 0.00 | 0.00 | 82 | 1015.5 |
| 20260906042020 | 74 | 98 | 2.6 | 6.1 | 0.00 | 0.00 | 0.00 | 81 | 1015.5 |
| 20260906041537 | 74 | 101 | 3.5 | 6.1 | 0.00 | 0.00 | 0.00 | 81 | 1015.7 |
| 20260906041012 | 74 | 115 | 2.6 | 5.2 | 0.00 | 0.00 | 0.00 | 81 | 1015.9 |
| 20260906040508 | 74 | 92 | 0.0 | 6.1 | 0.00 | 0.00 | 0.00 | 81 | 1015.9 |
| 20260906040020 | 74 | 84 | 2.6 | 6.1 | 0.00 | 0.00 | 0.00 | 81 | 1015.5 |
| 20260906035511 | 74 | 123 | 3.5 | 5.2 | 0.00 | 0.00 | 0.00 | 81 | 1015.6 |
| 20260906035013 | 74 | 105 | 2.6 | 4.3 | 0.00 | 0.00 | 0.00 | 81 | 1015.7 |
| 20260906034516 | 74 | 112 | 1.7 | 5.2 | 0.00 | 0.00 | 0.00 | 80 | 1015.8 |
| 20260906034011 | 75 | 102 | 1.7 | 5.2 | 0.00 | 0.00 | 0.00 | 80 | 1015.9 |
| 20260906033511 | 75 | 117 | 1.7 | 3.5 | 0.00 | 0.00 | 0.00 | 80 | 1015.9 |
| 20260906033022 | 75 | 101 | 0.9 | 3.5 | 0.00 | 0.00 | 0.00 | 79 | 1015.9 |
| 20260906032512 | 75 | 86 | 1.7 | 3.5 | 0.00 | 0.00 | 0.00 | 79 | 1015.9 |
| 20260906032011 | 75 | 105 | 0.9 | 3.5 | 0.00 | 0.00 | 0.00 | 79 | 1016.0 |
| 20260906031516 | 76 | 117 | 1.7 | 3.5 | 0.00 | 0.00 | 0.00 | 78 | 1016.0 |
| 20260906031012 | 76 | 119 | 0.9 | 2.6 | 0.00 | 0.00 | 0.00 | 78 | 1016.1 |
| 20260906030512 | 76 | 96 | 0.9 | 3.5 | 0.00 | 0.00 | 0.00 | 78 | 1016.1 |
| 20260906030019 | 76 | 115 | 0.9 | 3.5 | 0.00 | 0.00 | 0.00 | 77 | 1016.2 |
| 20260906025511 | 76 | 114 | 1.7 | 3.5 | 0.00 | 0.00 | 0.00 | 77 | 1016.2 |
| 20260906025012 | 76 | 121 | 0.0 | 5.2 | 0.00 | 0.00 | 0.00 | 77 | 1016.2 |
| 20260906024533 | 76 | 80 | 0.0 | 5.2 | 0.00 | 0.00 | 0.00 | 77 | 1016.1 |
| 20260906024008 | 76 | 101 | 0.0 | 3.5 | 0.00 | 0.00 | 0.00 | 77 | 1016.0 |
| 20260906023509 | 76 | 105 | 0.9 | 3.5 | 0.00 | 0.00 | 0.00 | 77 | 1015.7 |
| 20260906023019 | 76 | 146 | 0.9 | 2.6 | 0.00 | 0.00 | 0.00 | 77 | 1015.7 |
| 20260906022513 | 76 | 118 | 0.0 | 4.3 | 0.00 | 0.00 | 0.00 | 77 | 1015.6 |
| 20260906022012 | 77 | 103 | 0.0 | 4.3 | 0.00 | 0.00 | 0.00 | 77 | 1015.5 |
| 20260906021517 | 77 | 117 | 0.0 | 3.5 | 0.00 | 0.00 | 0.00 | 76 | 1015.6 |
| 20260906021010 | 77 | 115 | 0.9 | 3.5 | 0.00 | 0.00 | 0.00 | 76 | 1015.4 |
| 20260906020513 | 77 | 77 | 0.9 | 3.5 | 0.00 | 0.00 | 0.00 | 76 | 1015.2 |
| 20260906020018 | 77 | 65 | 0.9 | 6.1 | 0.00 | 0.00 | 0.00 | 75 | 1015.1 |
| 20260906015509 | 77 | 96 | 1.7 | 6.1 | 0.00 | 0.00 | 0.00 | 75 | 1014.9 |
| 20260906015011 | 77 | 104 | 1.7 | 5.2 | 0.00 | 0.00 | 0.00 | 75 | 1014.9 |
| 20260906014525 | 77 | 126 | 1.7 | 5.2 | 0.00 | 0.00 | 0.00 | 74 | 1014.8 |
| 20260906014009 | 78 | 80 | 1.7 | 5.2 | 0.00 | 0.00 | 0.00 | 74 | 1015.0 |
| 20260906013512 | 78 | 118 | 1.7 | 5.2 | 0.00 | 0.00 | 0.00 | 73 | 1015.0 |
| 20260906013036 | 78 | 100 | 0.9 | 5.2 | 0.00 | 0.00 | 0.00 | 73 | 1014.9 |
| 20260906012511 | 78 | 103 | 1.7 | 5.2 | 0.00 | 0.00 | 0.00 | 72 | 1014.8 |
| 20260906012011 | 78 | 123 | 1.7 | 4.3 | 0.00 | 0.00 | 0.00 | 71 | 1014.9 |
| 20260906011516 | 79 | 111 | 1.7 | 5.2 | 0.00 | 0.00 | 0.00 | 71 | 1014.8 |
| 20260906011011 | 79 | 116 | 1.7 | 5.2 | 0.00 | 0.00 | 0.00 | 70 | 1014.7 |
| 20260906010510 | 79 | 93 | 1.7 | 3.5 | 0.00 | 0.00 | 0.00 | 70 | 1014.9 |
| 20260906010024 | 79 | 117 | 1.7 | 3.5 | 0.00 | 0.00 | 0.00 | 69 | 1015.0 |
| 20260906005511 | 80 | 98 | 1.7 | 5.2 | 0.00 | 0.00 | 0.00 | 68 | 1015.0 |
| 20260906005011 | 80 | 108 | 0.9 | 5.2 | 0.00 | 0.00 | 0.00 | 68 | 1015.1 |
| 20260906004515 | 80 | 115 | 0.0 | 2.6 | 0.00 | 0.00 | 0.00 | 67 | 1015.1 |
| 20260906004012 | 80 | 194 | 0.0 | 3.5 | 0.00 | 0.00 | 0.00 | 67 | 1015.0 |
| 20260906003512 | 80 | 107 | 0.0 | 3.5 | 0.00 | 0.00 | 0.00 | 66 | 1014.9 |
| 20260906003020 | 81 | 175 | 0.0 | 6.1 | 0.00 | 0.00 | 0.00 | 66 | 1014.8 |
| 20260906002511 | 81 | 117 | 0.0 | 6.1 | 0.00 | 0.00 | 0.00 | 65 | 1014.8 |
| 20260906002013 | 81 | 178 | 1.7 | 7.8 | 0.00 | 0.00 | 0.00 | 65 | 1014.9 |
| 20260906001522 | 81 | 146 | 3.5 | 10.4 | 0.00 | 0.00 | 0.00 | 64 | 1014.9 |
| 20260906001011 | 82 | 164 | 4.3 | 10.4 | 0.00 | 0.00 | 0.00 | 64 | 1014.9 |
| 20260906000516 | 82 | 62 | 4.3 | 9.6 | 0.00 | 0.00 | 0.00 | 63 | 1014.8 |
| 20260906000017 | 83 | 179 | 4.3 | 8.7 | 0.00 | 0.00 | 0.00 | 63 | 1014.5 |
| 20260905235519 | 83 | 107 | 0.9 | 7.0 | 0.00 | 0.00 | 0.00 | 63 | 1014.3 |
| 20260905235012 | 84 | 103 | 2.6 | 9.6 | 0.00 | 0.00 | 0.00 | 62 | 1014.1 |
| 20260905234518 | 84 | 118 | 4.3 | 7.8 | 0.00 | 0.00 | 0.00 | 60 | 1013.9 |
| 20260905234014 | 84 | 138 | 1.7 | 7.8 | 0.00 | 0.00 | 0.00 | 60 | 1013.8 |
| 20260905233520 | 84 | 96 | 2.6 | 9.6 | 0.00 | 0.00 | 0.00 | 60 | 1013.7 |
| 20260905233021 | 84 | 103 | 2.6 | 9.6 | 0.00 | 0.00 | 0.00 | 61 | 1013.8 |
| 20260905232513 | 84 | 104 | 3.5 | 8.7 | 0.00 | 0.00 | 0.00 | 60 | 1013.7 |
| 20260905232013 | 84 | 146 | 4.3 | 11.3 | 0.00 | 0.00 | 0.00 | 59 | 1013.6 |
| 20260905231522 | 85 | 55 | 6.1 | 11.3 | 0.00 | 0.00 | 0.00 | 59 | 1013.5 |
| 20260905231013 | 85 | 113 | 2.6 | 7.8 | 0.00 | 0.00 | 0.00 | 58 | 1013.6 |
| 20260905230514 | 85 | 96 | 1.7 | 7.0 | 0.00 | 0.00 | 0.00 | 59 | 1013.5 |
| 20260905230018 | 85 | 113 | 2.6 | 7.0 | 0.00 | 0.00 | 0.00 | 58 | 1013.5 |
| 20260905225513 | 85 | 99 | 3.5 | 7.0 | 0.00 | 0.00 | 0.00 | 58 | 1013.3 |
| 20260905225012 | 85 | 114 | 3.5 | 9.6 | 0.00 | 0.00 | 0.00 | 58 | 1013.3 |
| 20260905224523 | 85 | 96 | 1.7 | 9.6 | 0.00 | 0.00 | 0.00 | 57 | 1013.4 |
| 20260905224014 | 85 | 123 | 6.1 | 9.6 | 0.00 | 0.00 | 0.00 | 57 | 1013.3 |
| 20260905223519 | 85 | 96 | 3.5 | 10.4 | 0.00 | 0.00 | 0.00 | 59 | 1013.3 |
| 20260905223022 | 85 | 117 | 4.3 | 11.3 | 0.00 | 0.00 | 0.00 | 60 | 1013.3 |
| 20260905222512 | 85 | 91 | 4.3 | 11.3 | 0.00 | 0.00 | 0.00 | 59 | 1013.3 |
| 20260905222012 | 85 | 75 | 4.3 | 8.7 | 0.00 | 0.00 | 0.00 | 58 | 1013.2 |
| 20260905221524 | 85 | 81 | 4.3 | 10.4 | 0.00 | 0.00 | 0.00 | 58 | 1013.4 |
| 20260905221014 | 85 | 88 | 5.2 | 10.4 | 0.00 | 0.00 | 0.00 | 58 | 1013.4 |
| 20260905220514 | 85 | 99 | 4.3 | 9.6 | 0.00 | 0.00 | 0.00 | 59 | 1013.5 |
| 20260905220024 | 85 | 93 | 5.2 | 11.3 | 0.00 | 0.00 | 0.00 | 60 | 1013.5 |
| 20260905215514 | 85 | 96 | 5.2 | 11.3 | 0.00 | 0.00 | 0.00 | 59 | 1013.6 |
| 20260905215013 | 85 | 106 | 5.2 | 10.4 | 0.00 | 0.00 | 0.00 | 59 | 1013.6 |
| 20260905214526 | 85 | 134 | 6.1 | 9.6 | 0.00 | 0.00 | 0.00 | 58 | 1013.7 |
| 20260905214012 | 85 | 90 | 3.5 | 11.3 | 0.00 | 0.00 | 0.00 | 59 | 1013.7 |
| 20260905213514 | 84 | 123 | 4.3 | 11.3 | 0.00 | 0.00 | 0.00 | 59 | 1013.8 |
| 20260905213022 | 85 | 82 | 5.2 | 12.2 | 0.00 | 0.00 | 0.00 | 59 | 1013.9 |
| 20260905212514 | 85 | 93 | 5.2 | 12.2 | 0.00 | 0.00 | 0.00 | 59 | 1013.9 |
| 20260905212013 | 85 | 72 | 2.6 | 11.3 | 0.00 | 0.00 | 0.00 | 61 | 1013.9 |
| 20260905211535 | 84 | 42 | 5.2 | 11.3 | 0.00 | 0.00 | 0.00 | 59 | 1014.0 |
| 20260905211014 | 84 | 74 | 5.2 | 11.3 | 0.00 | 0.00 | 0.00 | 59 | 1014.0 |
| 20260905210515 | 84 | 148 | 5.2 | 11.3 | 0.00 | 0.00 | 0.00 | 60 | 1014.1 |
| 20260905210023 | 84 | 70 | 5.2 | 12.2 | 0.00 | 0.00 | 0.00 | 60 | 1014.2 |
| 20260905205516 | 84 | 138 | 3.5 | 12.2 | 0.00 | 0.00 | 0.00 | 59 | 1014.1 |
| 20260905205014 | 84 | 62 | 6.1 | 13.0 | 0.00 | 0.00 | 0.00 | 59 | 1014.2 |
| 20260905204528 | 84 | 104 | 5.2 | 13.0 | 0.00 | 0.00 | 0.00 | 60 | 1014.3 |
| 20260905204011 | 84 | 96 | 4.3 | 10.4 | 0.00 | 0.00 | 0.00 | 59 | 1014.3 |
| 20260905203515 | 83 | 97 | 4.3 | 10.4 | 0.00 | 0.00 | 0.00 | 60 | 1014.4 |
| 20260905203023 | 83 | 85 | 4.3 | 12.2 | 0.00 | 0.00 | 0.00 | 61 | 1014.4 |
| 20260905202514 | 83 | 132 | 6.1 | 11.3 | 0.00 | 0.00 | 0.00 | 60 | 1014.6 |
| 20260905202014 | 82 | 111 | 5.2 | 13.0 | 0.00 | 0.00 | 0.00 | 62 | 1014.7 |
| 20260905201527 | 83 | 88 | 6.1 | 13.9 | 0.00 | 0.00 | 0.00 | 60 | 1014.9 |